Home > Weather > Ioannina > Past weeks

Flag for Greece Weather for the Past 2 Weeks in Ioannina, Greece

Now
57 °F

Partly cloudy.


Feels Like: 56 °F
Forecast: 42 / 52 °F
Wind: 7 mph from South

Location: Kerkyra Airport

Current Time: Feb 9, 2016 at 7:08:02 PM

Latest Report: Feb 9, 2016 at 6:20 PM


Visibility: N/A

Pressure: 30.15 "Hg

Humidity: 88%

Dew point: 54 °F

Location of IoanninaLocation

Historic Weather in Ioannina — Graph

°F

Ioannina Temperature Yesterday

Maximum temperature yesterday: 61 °F (at 3:50 PM)
Minimum temperature yesterday: 48 °F (at 11:50 PM)
Average temperature yesterday: 55 °F

High & Low Weather Summary for the Past Weeks

 TemperatureHumidityPressure
High66 °F (Feb 2, 12:50 PM)100% (Jan 27, 1:50 AM)30.45 "Hg (Jan 27, 1:50 AM)
Low36 °F (Feb 6, 7:50 AM)32% (Feb 5, 9:50 PM)29.86 "Hg (Feb 5, 4:20 AM)
Average53 °F78%30.27 "Hg
* Reported Jan 25 4:20 PM — Feb 9 4:50 PM, Ioannina, Weather by CustomWeather, © 2016

Note: Actual official high and low records may vary slightly from our data, if they occured in-between our weather recording intervals... More about our weather records

Advertising

Ioannina Weather History for the Previous 24 Hours

 ConditionsComfort  
Time TempWeatherWind HumidityBarometerVisibility
4:50 PM
Tue, Feb 9
57 °FBroken clouds.8 mph88%30.15 "HgN/A
4:20 PM55 °FBroken clouds.9 mph94%30.15 "Hg5 mi
3:50 PM55 °FLight rain. Broken clouds.8 mph94%30.15 "Hg4 mi
2:50 PM55 °FLight rain. Broken clouds.9 mph94%30.18 "Hg3 mi
2:20 PM54 °FLight rain. Broken clouds.16 mph100%30.21 "Hg4 mi
1:50 PM54 °FLight rain. Broken clouds.8 mph100%30.21 "Hg4 mi
1:20 PM52 °FLight rain. Broken clouds.7 mph100%30.21 "Hg2 mi
12:20 PM52 °FLight rain. Broken clouds.8 mph100%30.24 "Hg2 mi
11:50 AM52 °FRain. Broken clouds.7 mph100%30.24 "Hg2 mi
11:20 AM52 °FRain. Broken clouds.7 mph100%30.24 "Hg2 mi
10:50 AM52 °FRain. Broken clouds.6 mph100%30.24 "Hg2 mi
9:50 AM54 °FLight rain. Broken clouds.8 mph94%30.24 "Hg4 mi
9:20 AM54 °FLight rain. Broken clouds.10 mph94%30.21 "Hg5 mi
8:50 AM54 °FLight rain. Broken clouds.10 mph94%30.21 "Hg5 mi
8:20 AM55 °FLight rain. Broken clouds.8 mph82%30.21 "Hg4 mi
7:50 AM55 °FLight rain. Broken clouds.12 mph82%30.21 "Hg5 mi
7:20 AM55 °FLight rain. Partly cloudy.12 mph82%30.21 "HgN/A
6:50 AM55 °FPartly cloudy.8 mph82%30.21 "HgN/A
6:20 AM55 °FPartly cloudy.9 mph77%30.21 "HgN/A
5:50 AM55 °FPartly cloudy.9 mph77%30.21 "HgN/A
5:20 AM55 °FPartly cloudy.8 mph77%30.24 "HgN/A
4:50 AM55 °FPartly cloudy.8 mph77%30.24 "HgN/A
3:50 AM50 °FPartly cloudy.No wind88%30.24 "HgN/A
3:20 AM50 °FPartly cloudy.No wind88%30.24 "HgN/A
2:50 AM50 °FPartly cloudy.No wind88%30.24 "HgN/A
2:20 AM48 °FPartly cloudy.2 mph94%30.27 "HgN/A
1:50 AM48 °FPartly cloudy.No wind94%30.27 "HgN/A
1:20 AM48 °FPassing clouds.No wind87%30.27 "HgN/A
12:50 AM48 °FPassing clouds.No wind87%30.27 "HgN/A
12:20 AM48 °FPassing clouds.3 mph94%30.27 "HgN/A
11:50 PM
Mon, Feb 8
48 °FPassing clouds.No wind94%30.27 "HgN/A
11:20 PM50 °FPassing clouds.No wind88%30.27 "HgN/A
10:50 PM50 °FPassing clouds.2 mph88%30.27 "HgN/A
10:20 PM52 °FPassing clouds.No wind88%30.27 "HgN/A
9:50 PM52 °FPassing clouds.2 mph88%30.27 "HgN/A
9:20 PM54 °FPassing clouds.5 mph82%30.24 "HgN/A
8:50 PM54 °FPassing clouds.No wind82%30.24 "HgN/A
8:20 PM54 °FPassing clouds.No wind82%30.24 "HgN/A
7:50 PM54 °FPassing clouds.No wind82%30.24 "HgN/A
7:20 PM55 °FPassing clouds.No wind77%30.24 "HgN/A
Weather by CustomWeather, © 2016

See weather overviewHow to use our weather pages